AirNav   Air Wisconsin pilot careers
 
 1174 users online  

TA19 Post Oak Airfield
Weatherford, Texas, USA

GOING TO WEATHERFORD?


FAA INFORMATION EFFECTIVE 21 JUNE 2018

Location

FAA Identifier: TA19
Lat/Long: 32-40-28.4720N / 097-47-01.1110W
32-40.474533N / 097-47.018517W
32.6745756 / -97.7836419
(estimated)
Elevation: 1020 ft. / 311 m (estimated)
Variation: 07E (1985)
From city: 5 miles S of WEATHERFORD, TX
Time zone: UTC -5 (UTC -6 during Standard Time)
Zip code: 76087

Airport Operations

Airport use: Private use. Permission required prior to landing
Activation date: 11/1988
Control tower: no
ARTCC: FORT WORTH CENTER
FSS: FORT WORTH FLIGHT SERVICE STATION
Attendance: IREG
Wind indicator: yes
Segmented circle: yes

Airport Communications

WX AWOS-3 at GDJ (14 nm S): 118.925 (817-573-7514)
WX ASOS at MWL (15 nm NW): 135.075 (940-325-2457)

Nearby radio navigation aids

VOR radial/distance  VOR name  Freq  Var
MQPr097/11.2MILLSAP VORTAC117.7009E
JENr003/31.3GLEN ROSE VORTAC115.0006E
FUZr241/33.1RANGER VORTAC115.7006E
TTTr247/39.3MAVERICK VOR/DME113.1006E

Airport Services

Runway Information

Runway 18/36

Dimensions: 2350 x 30 ft. / 716 x 9 m
Surface: gravel, in fair condition
HAS SOFT SPOTS WHEN WET.
Runway edge markings: 18/36 HAS WHITE REFLECTORS WITH WHITE ACFT TIRES ALONG BOTH SIDES WITH A SINGLE RED ON EITHER SIDE AT RY 18 & A SINGLE BLUE ON EITHER SIDE AT RY 36.
Operational restrictions: UPSLOPE SOUTH 1/2 OF RY 18.
RUNWAY 18  RUNWAY 36
Traffic pattern: leftright
Obstructions: 15 ft. trees, 50 ft. right of centerline4 ft. brush, 50 ft. left of centerline

Airport Ownership and Management from official FAA records

Ownership: Privately-owned
Owner: JOHN G. GOOD
1501A LOWER TARRANT
GRAND PRAIRIE, TX 75050
Phone 214-606-0378
WORK PHONE AT FT WORTH POLICE HELICOPTERS 817-870-8311.
Manager: JOHN G. GOOD
1501 A LOWER TARRANT
WEATHERFORD, TX 76087
Phone 214-606-0378

Airport Operational Statistics

Aircraft based on the field: 1
Single engine airplanes: 1
    
Aircraft operations: 150/year *
67% local general aviation
33% transient general aviation
* for 12-month period ending 08 February 1995

Instrument Procedures

There are no published instrument procedures at TA19.

Some nearby airports with instrument procedures:

KWEA - Parker County Airport (7 nm NE)
50F - Bourland Field Airport (11 nm SE)
KGDJ - Granbury Regional Airport (14 nm S)
KMWL - Mineral Wells Airport (15 nm NW)
KNFW - Fort Worth Naval Air Station JRB (Carswell Field) Airport (18 nm E)
 
Loc | Ops | Rwys | IFR | FBO | Links
Com | Nav | Svcs | Stats | Notes

AirNav Hotels Sweepstakes
 
Area around TA19 (Post Oak Airfield)
 
Road maps at: MapQuest Bing Google
 
Aerial photo
No photo
 
Sectional chart

 
Airport distance calculator
Flying to Post Oak Airfield? Find the distance to fly.

From to TA19

Sunrise and sunset
Times for 21-Jun-2018
 Local
(UTC-5)
 Zulu
(UTC)
Morning civil twilight05:5610:56
Sunrise06:2511:25
Sunset20:4101:41
Evening civil twilight21:1002:10

Current date and time
Zulu (UTC)  21-Jun-2018 13:00:17
Local (UTC-5)  21-Jun-2018 08:00:17
 
METAR
KGDJ 
14nm S 
AWOS-3 118.925 817-573-7514
211235Z AUTO 00000KT 10SM CLR 24/22 A2996 RMK AO2 T02380215
KMWL 
16nm NW 
211253Z AUTO 00000KT 10SM CLR 23/22 A2995 RMK AO2 SLP125 T02330217
KNFW 
18nm E 
211152Z 00000KT 10SM FEW016 SCT250 24/21 A2993 RMK AO2 SLP120 70001 T02440211 10250 20233 53013 $
KFTW 
23nm NE 
211253Z 28003KT 10SM CLR A2993 RMK AO2 SNB05E25 SLPNO P0000 $
KFWS 
25nm E 
211248Z 00000KT 5SM BR FEW015 24/23 A2995
KCPT 
26nm SE 
211255Z AUTO 25003KT 6SM BR SCT002 23/23 A2996 RMK AO2
TAF
KNFW 
18nm E 
2107/2207 VRB03KT 9999 FEW020 SCT070 QNH2990INS TEMPO 2107/2112 VRB02KT 4800 BR AUTOMATED SENSOR METWATCH 2107 TIL 2111 T22/2112Z T35/2121Z FN00196
NOTAMs
Click for the latest NOTAMs
NOTAMs are issued by the DoD/FAA and will open in a separate window not controlled by AirNav.

 

 
 

Would you like to see your business listed on this page?

 If your business provides an interesting product or service to pilots, flight crews, aircraft, or users of the Post Oak Airfield, you should consider listing it here.  To start the listing process, click on the button below
 
Add a business
 

Other Pages about Post Oak Airfield

Update a link
 
Copyright © AirNav, LLC. All rights reserved. Privacy Policy  Contact